This demonstration page uses our WeatherBlox Daily Observations layout. Learn more.

Left ArrowRight Arrow

39.08367, -84.50855

Hourly Observations for June 27, 2020

Temp ( °F °C ) Dew Point ( °F °C ) Humidity (%) Winds ( mph kmh ) Pressure ( in mb ) Visibility ( mi km ) Precip ( " mm )
12:53 am 00:53 Clear 74 23.3 66 18.9 76 76 SSW 10 17 29.94 1014 10 16.0934 0 0
1:53 am 01:53 Clear 74 23.3 66 18.9 76 76 SW 10 17 29.95 1014 10 16.0934 0 0
2:53 am 02:53 Clear 75 23.9 67 19.4 76 76 SW 10 17 29.95 1014 10 16.0934 0 0
3:53 am 03:53 Clear 74 23.3 67 19.4 79 79 SW 9 15 29.95 1014 10 16.0934 0 0
4:51 am 04:51 Mostly Cloudy 73 23 68 20 83 83 SSW 6 9 29.94 1014 10 16.0934 0 0
4:53 am 04:53 Mostly Cloudy 74 23.3 68 20 82 82 SW 8 13 29.94 1014 10 16.0934 0 0
5:53 am 05:53 Cloudy 74 23.3 68 20 82 82 SSW 12 19 29.93 1014 10 16.0934 0 0
6:53 am 06:53 Cloudy 74 23.3 69 20.6 85 85 SSW 7 11 29.93 1013 10 16.0934 0 0
7:53 am 07:53 Cloudy 74 23.3 69 20.6 85 85 SSW 10 17 29.92 1013 10 16.0934 0 0
8:53 am 08:53 Cloudy 75 23.9 69 20.6 82 82 SSW 12 19 29.92 1013 10 16.0934 0 0
9:53 am 09:53 Cloudy 75 23.9 69 20.6 82 82 SW 8 13 29.92 1013 10 16.0934 0 0
10:53 am 10:53 Cloudy 76 24.4 69 20.6 79 79 WSW 10 17 29.95 1014 8 12.87472 0.001 0.001
11:53 am 11:53 Mostly Cloudy 79 26.1 71 21.7 77 77 SW 12 19 29.95 1014 10 16.0934 0.001 0.001
12:53 pm 12:53 Mostly Cloudy 78 25.6 70 21.1 76 76 SW 7 11 29.93 1014 10 16.0934 0 0
1:53 pm 13:53 Cloudy 75 23.9 66 18.9 74 74 NNE 7 11 29.92 1013 10 16.0934 0 0
2:53 pm 14:53 Cloudy 79 26.1 70 21.1 74 74 SW 15 24 29.87 1012 10 16.0934 0 0
3:53 pm 15:53 Cloudy 82 27.8 70 21.1 67 67 SSW 15 24 29.86 1011 10 16.0934 0 0
4:53 pm 16:53 Cloudy 79 26.1 69 20.6 72 72 SW 8 13 29.86 1011 9 14.48406 0 0
5:53 pm 17:53 Mostly Sunny 79 26.1 69 20.6 72 72 SSW 8 13 29.84 1011 8 12.87472 0 0
6:53 pm 18:53 Sunny 78 25.6 70 21.1 76 76 SSW 9 15 29.83 1010 9 14.48406 0.001 0.001
7:53 pm 19:53 Partly Cloudy with Light Rain 76 24.4 70 21.1 82 82 SSW 6 9 29.81 1010 9 14.48406 0.001 0.001
8:53 pm 20:53 Partly Cloudy 76 24.4 71 21.7 85 85 Calm 29.83 1010 9 14.48406 0.001 0.001
9:53 pm 21:53 Partly Cloudy 76 24.4 70 21.1 82 82 W 8 13 29.85 1011 10 16.0934 0 0
10:00 pm 22:00 Cloudy 75 23.9 69 20.6 82 82 WSW 6 9 29.85 1011 10 16.0934 0 0
10:25 pm 22:25 Mostly Cloudy 74 23.3 70 21.1 88 88 Calm 29.85 1011 10 16.0934 0 0
10:36 pm 22:36 Mostly Cloudy 73 22.8 70 21.1 90 90 SSW 3 6 29.85 1011 10 16.0934 0 0
10:53 pm 22:53 Mostly Cloudy 72 22.2 70 21.1 94 94 S 5 7 29.86 1011 9 14.48406 0 0
11:09 pm 23:09 Mostly Clear 72 22.2 69 20.6 91 91 S 7 11 29.85 1011 10 16.0934 0 0
11:53 pm 23:53 Cloudy 73 22.8 69 20.6 87 87 SSW 5 7 29.87 1012 10 16.0934 0 0

Powered by AerisWeather